Location: Pitton
(51.0667°N, 1.7000°W)
Time: 19:09:04
(UTC+00:00)

Cosmos 1626 Rocket - Pass Details

Date: 17 September 2019
Orbit: 602 x 632 km, 82.5° (Epoch: 15 October)

Event Time Altitude Azimuth Distance (km) Brightness Sun altitude
Rises 20:12:59 0° 354° (N) 2,876 7.5 -18.2°
Reaches altitude 10° 20:15:18 10° 0° (N) 1,964 6.5 -18.5°
Maximum altitude 20:19:28 45° 74° (ENE) 828 3.9 -19.1°
Enters shadow 20:19:58 43° 95° (E) 853 3.8 -19.2°
